OpenBCM V1.13 (Linux)

Packet Radio Mailbox

DB0FHN

[JN59NK Nuernberg]

 Login: GUEST





  
I0OJJ  > KEPS     05.03.25 06:12l 332 Lines 15720 Bytes #999 (0) @ AMSAT
BID : ORB25064.1
Read: DJ6UX GUEST
Subj: 2Line Orbital Elements 25064.AMSAT
Path: DB0FHN<DB0FFL<OE5XBL<OE6XPE<DB0ERF<IZ3LSV<ED1ZAC<EA5URD
Sent: 250305/0350Z @:EA5URD.EAMU.ESP.EU #:9719 XFBB7.07 Bid:ORB25064.1

R:250305/0345Z @:EA2RCF.EAVI.ESP.EU #:62297 [Vitoria] $:ORB25064.1
R:250305/0345z @:I0OJJ.ITA.EU [Rome] obcm1.08-6-g5b69
From: I0OJJ @ I0OJJ.ITA.EU (Gustavo)
To:   KEPS @ AMSAT
X-Info: This message was generated automatically


QST de W1STR

AMSAT Orbital Elements for Amateur Satellites in TLE Format
From Orbital Analysis Office
New England Sci-Tech STEM Education Center
Natick, MA March 05, 2025
To all radio amateurs


These element sets describe the orbits of various satellites 
in use by the amateur radio community. For details see:
www.amsat.org/keplerian-elements-formats/

A daily update of element sets is available at:
www.amsat.org/tle/daily-bulletin.txt
or without bulletin text:
www.amsat.org/tle/dailytle.txt


AO-07
1 07530U 74089B   25063.28054578 -.00000048  00000-0 -85719-5 0  9997
2 07530 101.9949  66.5045 0011935 308.7129  61.8732 12.53686691301632
UO-11
1 14781U 84021B   25063.84307303  .00003159  00000-0  34292-3 0  9991
2 14781  97.7433  32.2249 0006357 304.2644  55.7971 14.88830943208240
AO-27
1 22825U 93061C   25063.43199471  .00000256  00000-0  11492-3 0  9995
2 22825  98.7503 124.4502 0009066  43.7368 316.4531 14.30741767639824
FO-29
1 24278U 96046B   25063.30435183 -.00000003  00000-0  35344-4 0  9998
2 24278  98.5856 329.9568 0349041 234.4894 122.3224 13.53239376409611
NOAA-15
1 25338U 98030A   25063.76570630  .00000313  00000-0  14648-3 0  9994
2 25338  98.5465  91.1807 0009128 283.7429  76.2736 14.26900038394595
GO-32
1 25397U 98043D   25063.53670444  .00000226  00000-0  11785-3 0  9994
2 25397  98.9605  40.6827 0002233 110.2588 249.8830 14.24265433384695
ISS
1 25544U 98067A   25063.55690889  .00012145  00000-0  22255-3 0  9998
2 25544  51.6371 105.2620 0005921 343.8665 111.9615 15.49718586498934
NO-44
1 26931U 01043C   25063.33363209  .00000499  00000-0  21823-3 0  9995
2 26931  67.0522  19.2555 0005807 265.8403  94.2035 14.31641858223180
SO-50
1 27607U 02058C   25063.47796853  .00002321  00000-0  31172-3 0  9997
2 27607  64.5538 140.1629 0044956 358.0004   2.0914 14.81070867194840
CO-55
1 27844U 03031E   25063.49988482  .00000749  00000-0  34624-3 0  9992
2 27844  98.6796  73.0186 0010824 107.7237 252.5124 14.23853180124822
CO-57
1 27848U 03031J   25063.75500968  .00000598  00000-0  28381-3 0  9999
2 27848  98.6823  73.3479 0010577 122.2485 237.9720 14.23208860124645
RS-22
1 27939U 03042A   25063.82485373  .00002460  00000-0  40119-3 0  9995
2 27939  98.3172 231.0115 0010841 320.0668 147.2570 14.71873837146594
NOAA-18
1 28654U 05018A   25063.79234899  .00000366  00000-0  21776-3 0  9997
2 28654  98.8481 144.3439 0014741  47.9584 312.2840 14.13532626 20079
CO-58
1 28895U 05043F   25063.36650159  .00003428  00000-0  57513-3 0  9996
2 28895  98.2325 206.6290 0014036 253.4446 106.5218 14.70320315 32655
CO-65
1 32785U 08021C   25063.51697332  .00008899  00000-0  67138-3 0  9990
2 32785  97.7773  34.1332 0010616 168.3253 191.8219 15.02627469914563
AAUSAT2
1 32788U 08021F   25063.48812122  .00114677  00000-0  18527-2 0  9994
2 32788  97.6069  56.1640 0004525  83.7294 276.4474 15.52449574918152
CO-66
1 32791U 08021J   25063.48067396  .00018724  00000-0  10109-2 0  9997
2 32791  97.7212  41.6531 0006558 122.3829 237.8038 15.14764547915856
RS-30
1 32953U 08025A   25063.74635841 -.00000001  00000-0 -79590-4 0  9998
2 32953  82.4998 287.4212 0018655 257.0352 102.8645 12.43159608761491
NOAA-19
1 33591U 09005A   25063.78295565  .00000319  00000-0  19443-3 0  9995
2 33591  99.0096 127.9015 0012792 277.0719  82.8998 14.13300544828439
SRMSAT
1 37841U 11058D   25063.25980641  .00000614  00000-0  19003-3 0  9996
2 37841  19.9732  23.4525 0011883  75.1617  59.6514 14.11375728691347
ZACUBE-1
1 39417U 13066B   25063.86793340  .00009685  00000-0  87266-3 0  9996
2 39417  97.7691  21.5599 0046218  17.5356 342.7447 14.94962203610451
Delfi-N3xt
1 39428U 13066N   25063.48910188  .00012227  00000-0  13071-2 0  9995
2 39428  97.8364 342.3657 0087240 321.1378  38.3585 14.86107767604640
GOMX-1
1 39430U 13066Q   25063.86062064  .00003462  00000-0  54712-3 0  9990
2 39430  97.6973 288.4204 0134715 141.3950 219.6982 14.66972531601226
LO-74
1 39440U 13066AA  25063.39363762  .00006669  00000-0  69685-3 0  9995
2 39440  97.8406   8.7751 0065146 139.0578 221.5557 14.88429651606972
AO-73
1 39444U 13066AE  25063.43867863  .00013612  00000-0  10833-2 0  9991
2 39444  97.7554  25.2718 0041622 357.4066   2.6935 14.99826317609015
DTUSAT-2
1 40030U 14033W   25063.43522904  .00011388  00000-0  78636-3 0  9997
2 40030  98.0466  30.7689 0011200  40.6878 319.5182 15.05895132581767
EO-80
1 40032U 14033Y   25063.85932972  .00012858  00000-0  88505-3 0  9994
2 40032  98.0338  30.9979 0008007 341.6829  18.4107 15.06003972582321
LILACSAT-2
1 40908U 15049K   25063.76357417  .00015231  00000-0  44192-3 0  9991
2 40908  97.5157  81.9400 0011377 139.5128 220.6964 15.35551760523352
IO-86
1 40931U 15052B   25038.81889873  .00001817  00000-0  15548-3 0  9993
2 40931   6.0001 108.1159 0012838 187.7041 172.2889 14.78568669506492
Horyu-4
1 41340U 16012D   25063.34326057  .00025182  00000-0  81831-3 0  9990
2 41340  30.9998  63.1355 0007249 143.6292 216.4845 15.30688371497848
Lapan A3
1 41603U 16040E   25063.79800529  .00005337  00000-0  19330-3 0  9998
2 41603  97.1405  72.2573 0009319 251.3364 108.6865 15.28752861482995
CAS-2T
1 41847U 16066G   25063.28104553  .00002821  00000-0  40793-3 0  9996
2 41847  98.4284 138.5819 0348701 112.7386 251.1049 14.43068157436988
CAS-4B
1 42759U 17034B   25063.77549905  .00049613  00000-0  87156-3 0  9997
2 42759  43.0103 173.1458 0017818 330.9144  29.0723 15.49570870427516
CAS-4A
1 42761U 17034D   25063.73496596  .00055971  00000-0  96220-3 0  9999
2 42761  43.0139 171.2574 0018868 336.3727  23.6266 15.50115190427524
TechnoSat
1 42829U 17042E   25063.73171230  .00005915  00000-0  47221-3 0  9998
2 42829  97.3898 237.1079 0011982 251.4993 108.4930 15.00576868416196
AO-91
1 43017U 17073E   25063.70239282  .00010943  00000-0  58265-3 0  9998
2 43017  97.5446 296.9862 0181920 135.6533 225.9430 15.02180233394658
S-Net D
1 43186U 18014G   25063.29185240  .00007355  00000-0  45415-3 0  9995
2 43186  97.5702 327.2493 0008891 188.2118 171.8967 15.10152190387685
S-Net B
1 43187U 18014H   25063.29607919  .00007063  00000-0  43640-3 0  9992
2 43187  97.5709 327.2202 0009754 183.7891 176.3266 15.10136673387688
S-Net A
1 43188U 18014J   25063.16003122  .00006723  00000-0  41547-3 0  9991
2 43188  97.5714 327.2239 0009713 184.7750 175.3388 15.10153044387668
S-Net C
1 43189U 18014K   25063.29825706  .00006847  00000-0  42306-3 0  9997
2 43189  97.5734 327.3577 0011432 178.4965 181.6301 15.10133108386232
Ten-Koh
1 43677U 18084G   25063.48376872  .00006073  00000-0  49739-3 0  9990
2 43677  98.0921 231.8707 0009890 226.9551 133.0843 14.99648826345687
PO-101
1 43678U 18084H   25063.86682655  .00004008  00000-0  34918-3 0  9991
2 43678  98.0949 236.3793 0008134 246.2337 113.8031 14.97485913345904
QO-100
1 43700U 18090A   25063.29003219  .00000139  00000-0  00000-0 0  9997
2 43700   0.0271 251.3395 0001180 105.4114 295.7315  1.00270031 22965
MinXSS-2
1 43758U 18099A   25063.13685287  .00019662  00000-0  88399-3 0  9994
2 43758  97.5140 129.0965 0013823 137.7591 222.4712 15.21078700342131
AO-95
1 43770U 18099N   25063.42525663  .00012308  00000-0  67302-3 0  9992
2 43770  97.5056 122.6941 0011655 183.5651 176.5499 15.14363568341839
RANGE-A
1 43773U 18099R   25063.42012953  .00007926  00000-0  52435-3 0  9999
2 43773  97.4627 114.6564 0012285 160.2683 199.9023 15.07556399341575
MOVE-II
1 43780U 18099Y   25063.16139339  .00073264  00000-0  15374-2 0  9994
2 43780  97.4786 133.8625 0004290 154.9437 205.2020 15.45107664342628
SNUSat 2
1 43782U 18099AA  25063.09433794  .00010578  00000-0  61473-3 0  9991
2 43782  97.4746 119.8797 0013802 129.0024 231.2438 15.12191463341753
SnugLite
1 43784U 18099AC  25063.40944486  .00012430  00000-0  67469-3 0  9993
2 43784  97.4557 119.5836 0004962 127.0935 233.0751 15.14667528341910
ITASat 1
1 43786U 18099AE  25063.39914991  .00008810  00000-0  53155-3 0  9995
2 43786  97.4707 119.9522 0015348 176.5898 183.5440 15.10869331341772
EAGLET 1
1 43790U 18099AJ  25063.43751609  .00007237  00000-0  47789-3 0  9998
2 43790  97.4901 120.2252 0013051 158.3738 201.8044 15.07646570341428
ESEO
1 43792U 18099AL  25063.22636908  .00003717  00000-0  28802-3 0  9995
2 43792  97.4582 114.5321 0011525 129.8637 230.3604 15.01953711341200
CSIM
1 43793U 18099AM  25063.27514569  .00079292  00000-0  16438-2 0  9991
2 43793  97.4966 136.0061 0006273 125.6325 234.5508 15.45429255342488
JO-97
1 43803U 18099AX  25063.11126403  .00014983  00000-0  75301-3 0  9993
2 43803  97.4798 123.2114 0009095 124.3057 235.9038 15.17322029341979
Suomi 100
1 43804U 18099AY  25063.11644261  .00012965  00000-0  68725-3 0  9991
2 43804  97.4868 122.7526 0014230 125.7645 234.4912 15.15423833341927
ISAT
1 43879U 18111D   25063.80162546  .00024652  00000-0  10092-2 0  9994
2 43879  97.6012 336.4000 0010371 162.5541 197.6054 15.24256004336902
UWE-4
1 43880U 18111E   25063.29739666  .00018878  00000-0  84185-3 0  9990
2 43880  97.5957 334.9678 0012880 180.2210 179.9022 15.21379205338818
Sparrow
1 43881U 18111F   25063.32817228  .00024254  00000-0  96684-3 0  9998
2 43881  97.6141 338.4547 0006432 200.4822 159.6159 15.25183323338936
Prox-1
1 44339U 19036A   25063.43635470  .00015139  00000-0  20755-2 0  9990
2 44339  23.9981 338.5428 0007322  42.2845 317.8216 14.76744996303628
SONATE
1 44400U 19038Q   25063.09818224  .00072478  00000-0  82818-3 0  9991
2 44400  97.7083  79.4471 0006959 230.5381 129.5261 15.61921494314221
